4768 visiteurs
Prévisions par ville :
Vigilance : 73 départements le 24/05/24 à 06:00 - Voir la carte - Être alerté(e)

Paris Roissy CDG (95380) le 24/05/24 à 08:30 Choisir station

13°C 88 % N Vit. moyenne 13 km/h

Actualités :

Le 24/05/2024 à 00h28 :
À 7 jours d'échéance on a désormais des versions fraîches et humides sur les modèles. Stop ou encore ? Une tendance à confirmer.



Le 23/05/2024 à 23h24 :
@meteo60 rappelle qu'il en a strictement rien à cirer si certaines publications déplaisent aux kandubien lobotimisés. Merci pour vos critiques et vos compliments. Continuez. Cordialement. La direction.



Relevés météo quotidiens pour la station de :

UTC
S: Synop
M: Metar
Loc T°C
(°C)
Td
(°C)
HR
(%)
Vis
(km)
Néb
(octa)
Vent
(km/h)
Pression
(mb)
Précipitations
(mm)
Temps
              MOY
10 min
DIR RAF 1h MESURE VAR SUR 3h    
S 00 h 02h 14.7 8.9 68 55 - 7 22 1013.9 -0.2/3h 0.0/6h - 0.0/3h -
S 01 h 03h 14.1 8.9 70 55 - 7 7 1013.8 -0.3/3h 0.0/1h -
S 02 h 04h 11.6 8.3 80 50 - 7 9 1014.0 -0.6/3h 0.0/1h -
S 03 h 05h 11.3 8.0 80 45 - 7 11 1013.8 -0.6/3h 0.0/3h -
S 04 h 06h 11.4 8.4 81 40 - 6 11 1014.2 0.0/3h 0.0/1h -
S 05 h 07h 11.9 9.5 85 40 - 6 9 1014.3 +0.4/3h 0.0/1h -
S 06 h 08h 16.5 10.6 68 45 - 4 11 1013.8 +0.8/3h 0.0/12h - 0.0/3h - 0.0/24h -
S 07 h 09h 18.9 11.0 60 30 - 4 14 1013.9 +0.9/3h 0.0/1h -
S 08 h 10h 22.2 10.3 46 29 - 4 11 1013.2 +0.5/3h 0.0/1h -
S 09 h 11h 25.1 10.5 39 40 - 6 15 1012.5 0.0/3h 0.0/3h -
S 10 h 12h 26.1 11.1 39 55 - 11 20 1012.4 -0.4/3h 0.0/1h -
S 11 h 13h 27.4 10.6 35 35 - 13 24 1011.8 -0.6/3h 0.0/1h -
S 12 h 14h 28.2 10.4 33 35 - 13 26 1011.5 -0.5/3h 0.0/6h - 0.0/3h -
S 13 h 15h 28.4 10.1 32 40 - 11 24 1011.4 -0.7/3h 0.0/1h -
S 14 h 16h 29.4 7.9 26 35 7/8 7 18 1010.9 -0.6/3h 0.0/1h
S 15 h 17h 30.8 7.3 23 45 - 11 22 1010.2 -0.9/3h 0.0/3h -
S 16 h 18h 30.5 7.6 23 55 6/8 11 26 1010.3 -0.8/3h 0.0/1h
S 17 h 19h 30.4 8.7 25 50 7/8 7 19 1010.1 -0.7/3h 0.0/1h
S 18 h 20h 29.1 8.7 27 55 6/8 20 31 1010.8 +0.3/3h 0.0/12h - 0.0/3h
S 19 h 21h 24.7 12.6 46 55 7/8 7 29 1011.8 +0.7/3h 0.0/1h
S 20 h 22h 23.4 12.4 50 55 7/8 4 9 1012.9 +1.8/3h 0.0/1h
S 21 h 23h 21.7 13.3 58 45 - 6 9 1013.8 +1.9/3h 0.0/1h -
S 22 h 00h 19.7 12.9 64 50 - 4 11 1014.3 +1.7/3h 0.0/1h -
S 23 h 01h 18.5 12.0 65 45 - 6 9 1014.7 +1.0/3h 0.0/1h -

Télécharger ces données au format CSV pour le 28/07/2022

evolution des temperatures
cumul des precipitations
vent moyen et rafales
pression atmospherique

Un tiret (-) signifie que les données ne sont pas disponibles.

Passez la souris sur les pictos temps pour avoir plus de précisions. Passez les flèches sur l'icône de la direction du vent pour voir la direction précise en degrés.

Les données de l'heure en cours sont disponibles à partir de H+15 minutes.


S signifie station Synop, plus complète qu'une station Metar (M). Il y a +1h de différence entre l'heure UTC et l'heure légale en hiver et +2h en été.

Td est la mesure du point de rosée.

HR est l'humidité relative/p>

Vis est la visibilité

Néb est la nébulosité du ciel (couverture nuageuse) exprimée en octas (de 0/8 à 8/8).

Vent moy 10 min donne le vent moyen sur les 10 minutes qui précèdent le relevé.

Vent raf 1h donne la rafale maximale mesurée dans l'heure qui précède le relevé.

La colonne précipitations donne des cumuls en mm (ou litres par mètre carré) sur le laps de temps indiqué. Les stations synop / metar doivent fournir quotidiennement, à 6h TU, le cumul sur 24h. En dehors de 6h TU, la station peut fournir de manière aléatoire des cumuls sur 1h, 3h 6h, 12h. En cas de différence entre l'addition sur 24h des cumuls sur 1h ou sur 6h par exemple, et le cumul sur 24h à 6h TU, c'est ce dernier qu'il faut prendre en compte.


Les données les plus anciennes remontent à avril 2014.

Les données présentées sur cette page proviennent des stations météo officielles. Les relevés sont effectués aux normes en vigueur (anémomètre à 10m de haut, thermomètre sous abri normalisé à 2m du sol...)

Météo 60 décline toute responsabilité en cas d'absence de données, d'erreurs, de mauvaise utilisation ou interprétation et n'est pas habilité à fournir des certificats intempéries.

Paris Roissy CDG (95380)

le 24/05/24 à 08:30

Choisir station

13°C 88 %

N Vit. moyenne 13 km/h

Actualités :

Le 24/05/2024 à 00h28 :
À 7 jours d'échéance on a désormais des versions fraîches et humides sur les modèles. Stop ou encore ? Une tendance à confirmer.



Le 23/05/2024 à 23h24 :
@meteo60 rappelle qu'il en a strictement rien à cirer si certaines publications déplaisent aux kandubien lobotimisés. Merci pour vos critiques et vos compliments. Continuez. Cordialement. La direction.